This is the latest recevied weather packets stored in our database for station/object HB0PJ-13. If no packets are shown the sender has not sent any weather packets the latest 10 day(s).
| Time | Temp. | Humidity | Pressure | Rain* | Wind** | Luminosity | Snow |
|---|---|---|---|---|---|---|---|
| 1777140471 | 23.33° C | 26% | 960.1 hPa | - | - | 4 W/m² | - |
| 1777140351 | 23.33° C | 25% | 960 hPa | - | - | 4 W/m² | - |
| 1777140111 | 24.44° C | 24% | 960 hPa | - | - | 6 W/m² | - |
| 1777139871 | 25° C | 24% | 960 hPa | - | - | 9 W/m² | - |
| 1777139751 | 26.11° C | 23% | 959.9 hPa | - | - | 10 W/m² | - |
| 1777139631 | 26.67° C | 22% | 959.9 hPa | - | - | 13 W/m² | - |
| 1777139511 | 27.78° C | 22% | 960 hPa | - | - | 79 W/m² | - |
| 1777139391 | 27.78° C | 21% | 960 hPa | - | - | 165 W/m² | - |
| 1777139271 | 28.33° C | 21% | 960.1 hPa | - | - | 182 W/m² | - |
| 1777139151 | 28.89° C | 20% | 960 hPa | - | - | 195 W/m² | - |
| 1777138791 | 29.44° C | 19% | 960.1 hPa | - | - | 264 W/m² | - |
| 1777138671 | 30° C | 19% | 960.1 hPa | - | - | 314 W/m² | - |
| 1777138551 | 29.44° C | 19% | 960.1 hPa | - | - | 296 W/m² | - |
| 1777138431 | 29.44° C | 19% | 960.1 hPa | - | - | 352 W/m² | - |
| 1777138071 | 30° C | 19% | 960.1 hPa | - | - | 371 W/m² | - |
| 1777137951 | 30° C | 19% | 960 hPa | - | - | 364 W/m² | - |
| 1777137831 | 29.44° C | 19% | 959.9 hPa | - | - | 405 W/m² | - |
| 1777137711 | 29.44° C | 19% | 959.9 hPa | - | - | 360 W/m² | - |
| 1777137591 | 29.44° C | 20% | 959.9 hPa | - | - | 290 W/m² | - |
| 1777137471 | 28.89° C | 20% | 959.8 hPa | - | - | 200 W/m² | - |
| 1777137351 | 28.89° C | 20% | 959.8 hPa | - | - | 99 W/m² | - |
| 1777137231 | 27.78° C | 21% | 959.8 hPa | - | - | 174 W/m² | - |
| 1777137111 | 27.22° C | 22% | 959.7 hPa | - | - | 248 W/m² | - |
| 1777136991 | 26.67° C | 22% | 959.8 hPa | - | - | 181 W/m² | - |
| 1777136871 | 26.67° C | 22% | 959.7 hPa | - | - | 209 W/m² | - |
* Rain since midnight (hover to see other rain measurements)
** Current wind speed in m/s (hover to see current wind gust speed)